EW6393 Weather Reports


Display with metric or nautical units.
time (UTC)temp
F
wind
direction
speed
MPH
gust
MPH
rain 1hr
in
rain 24hr
in
rain mn
in
humidity
%
barometer
mb
20260503015155 68 255 1.0 4.0 0.00 0.00 0.00 22 1016.5
20260503014615 68 311 0.0 5.0 0.00 0.00 0.00 22 1016.5
20260503014115 69 302 2.0 5.0 0.00 0.00 0.00 21 1016.5
20260503013643 69 319 0.0 7.0 0.00 0.00 0.00 23 1016.5
20260503013123 69 302 1.0 7.0 0.00 0.00 0.00 21 1016.5
20260503012632 69 277 2.0 7.0 0.00 0.00 0.00 21 1016.5
20260503012133 69 295 3.0 8.0 0.00 0.00 0.00 20 1016.5
20260503011614 70 328 1.0 5.0 0.00 0.00 0.00 20 1016.5
20260503011122 70 321 2.0 8.0 0.00 0.00 0.00 20 1016.5
20260503010624 70 252 4.0 8.0 0.00 0.00 0.00 20 1016.4
20260503010130 71 249 2.0 7.0 0.00 0.00 0.00 20 1016.4
20260503005611 71 323 3.0 7.0 0.00 0.00 0.00 20 1016.4
20260503005132 71 328 1.0 4.0 0.00 0.00 0.00 19 1016.5
20260503004619 72 323 1.0 5.0 0.00 0.00 0.00 20 1016.4
20260503004120 72 285 1.0 6.0 0.00 0.00 0.00 20 1016.5
20260503003628 72 302 2.0 6.0 0.00 0.00 0.00 19 1016.5
20260503003129 73 260 2.0 7.0 0.00 0.00 0.00 19 1016.5
20260503002630 72 262 3.0 10.0 0.00 0.00 0.00 18 1016.5
20260503002111 73 266 4.0 10.0 0.00 0.00 0.00 18 1016.5
20260503001638 73 245 3.0 8.0 0.00 0.00 0.00 19 1016.4
20260503001125 73 285 5.0 8.0 0.00 0.00 0.00 18 1016.5
20260503000641 73 257 3.0 9.0 0.00 0.00 0.00 17 1016.5
20260503000129 74 356 4.0 10.0 0.00 0.00 0.00 18 1016.5
20260502235630 74 283 3.0 6.0 0.00 0.00 0.00 18 1016.6
20260502235110 74 1 2.0 10.0 0.00 0.00 0.00 17 1016.6
20260502234618 73 255 5.0 10.0 0.00 0.00 0.00 17 1016.6
20260502234120 73 276 2.0 6.0 0.00 0.00 0.00 17 1016.7
20260502233621 74 269 3.0 6.0 0.00 0.00 0.00 17 1016.7
20260502233130 74 302 3.0 10.0 0.00 0.00 0.00 17 1016.7
20260502232611 74 304 3.0 10.0 0.00 0.00 0.00 15 1016.8
20260502232112 74 224 2.0 9.0 0.00 0.00 0.00 16 1016.9
20260502231620 75 220 2.0 4.0 0.00 0.00 0.00 15 1016.9
20260502231121 73 279 1.0 7.0 0.00 0.00 0.00 14 1017.0
20260502230622 73 202 2.0 7.0 0.00 0.00 0.00 15 1017.2
20260502230130 73 265 0.0 6.0 0.00 0.00 0.00 17 1017.2
20260502225610 72 322 3.0 8.0 0.00 0.00 0.00 17 1017.3
20260502225111 72 289 3.0 8.0 0.00 0.00 0.00 16 1017.4
20260502224619 72 273 4.0 8.0 0.00 0.00 0.00 16 1017.5
20260502224120 73 243 3.0 9.0 0.00 0.00 0.00 15 1017.5
20260502223621 73 283 5.0 9.0 0.00 0.00 0.00 15 1017.5
20260502223130 74 276 2.0 9.0 0.00 0.00 0.00 16 1017.7
20260502222632 75 255 6.0 9.0 0.00 0.00 0.00 14 1017.7
20260502222118 76 226 2.0 5.0 0.00 0.00 0.00 14 1017.8
20260502221618 75 229 2.0 5.0 0.00 0.00 0.00 16 1017.8
20260502221119 75 145 3.0 5.0 0.00 0.00 0.00 15 1017.9
20260502220625 75 245 2.0 6.0 0.00 0.00 0.00 15 1018.1
20260502220126 75 288 3.0 6.0 0.00 0.00 0.00 14 1018.1
20260502215634 75 295 2.0 5.0 0.00 0.00 0.00 14 1018.1
20260502215111 74 143 2.0 6.0 0.00 0.00 0.00 14 1018.3
20260502214633 73 273 2.0 6.0 0.00 0.00 0.00 16 1018.4
20260502214119 74 286 3.0 6.0 0.00 0.00 0.00 12 1018.5
20260502213621 74 245 3.0 6.0 0.00 0.00 0.00 13 1018.6
20260502213130 75 235 2.0 6.0 0.00 0.00 0.00 14 1018.7
20260502212630 75 165 3.0 7.0 0.00 0.00 0.00 15 1018.8
20260502212111 74 195 3.0 7.0 0.00 0.00 0.00 11 1018.7
20260502211620 74 174 2.0 7.0 0.00 0.00 0.00 14 1018.9
20260502211121 75 158 3.0 7.0 0.00 0.00 0.00 15 1019.1
20260502210622 74 183 1.0 5.0 0.00 0.00 0.00 12 1019.1
20260502210127 74 243 1.0 7.0 0.00 0.00 0.00 16 1019.1
20260502205627 74 141 3.0 7.0 0.00 0.00 0.00 14 1019.3
20260502205135 74 207 3.0 6.0 0.00 0.00 0.00 15 1019.3
20260502204615 73 311 1.0 8.0 0.00 0.00 0.00 15 1019.3
20260502204115 73 136 4.0 8.0 0.00 0.00 0.00 14 1019.4
20260502203641 73 174 4.0 8.0 0.00 0.00 0.00 16 1019.4
20260502203121 74 113 3.0 8.0 0.00 0.00 0.00 13 1019.5
20260502202629 74 198 2.0 9.0 0.00 0.00 0.00 16 1019.6
20260502202110 73 188 1.0 8.0 0.00 0.00 0.00 17 1019.6
20260502201632 72 229 4.0 8.0 0.00 0.00 0.00 14 1019.6
20260502201119 73 85 2.0 6.0 0.00 0.00 0.00 17 1019.8
20260502200619 73 187 2.0 6.0 0.00 0.00 0.00 17 1019.9
20260502200126 73 307 1.0 4.0 0.00 0.00 0.00 16 1019.9
20260502195628 73 135 1.0 5.0 0.00 0.00 0.00 17 1019.9
20260502195136 73 166 2.0 4.0 0.00 0.00 0.00 15 1020.1
20260502194618 73 224 2.0 4.0 0.00 0.00 0.00 17 1020.1
20260502194139 73 136 1.0 5.0 0.00 0.00 0.00 14 1020.1
20260502193626 73 233 2.0 5.0 0.00 0.00 0.00 15 1020.3
20260502193127 73 249 2.0 5.0 0.00 0.00 0.00 16 1020.2
20260502192628 72 166 2.0 5.0 0.00 0.00 0.00 16 1020.3
20260502192118 72 181 2.0 10.0 0.00 0.00 0.00 15 1020.4
20260502191638 72 262 4.0 10.0 0.00 0.00 0.00 16 1020.5
20260502191125 73 221 3.0 8.0 0.00 0.00 0.00 17 1020.6
20260502190625 72 139 2.0 6.0 0.00 0.00 0.00 17 1020.7
20260502190113 71 248 3.0 8.0 0.00 0.00 0.00 17 1020.7
20260502185634 71 217 2.0 6.0 0.00 0.00 0.00 17 1020.8
20260502185121 71 220 3.0 7.0 0.00 0.00 0.00 15 1020.9
20260502184622 71 193 2.0 7.0 0.00 0.00 0.00 17 1020.9
20260502184131 71 226 2.0 6.0 0.00 0.00 0.00 15 1020.9
20260502183629 71 233 3.0 6.0 0.00 0.00 0.00 18 1021.1
20260502183137 71 212 2.0 6.0 0.00 0.00 0.00 19 1021.0
20260502182617 71 268 2.0 5.0 0.00 0.00 0.00 17 1021.1
20260502182118 70 87 0.0 5.0 0.00 0.00 0.00 21 1021.1
20260502181618 70 120 2.0 7.0 0.00 0.00 0.00 19 1021.3
20260502181126 70 103 1.0 6.0 0.00 0.00 0.00 21 1021.3
20260502180627 70 268 2.0 7.0 0.00 0.00 0.00 22 1021.4
20260502180134 70 274 2.0 7.0 0.00 0.00 0.00 20 1021.4
20260502170120 66 297 2.0 5.0 0.00 0.00 0.00 22 1021.7
20260502164111 65 250 1.0 4.0 0.00 0.00 0.00 25 1021.7
20260502163639 66 227 2.0 4.0 0.00 0.00 0.00 23 1021.8
20260502163118 65 272 1.0 2.0 0.00 0.00 0.00 25 1021.7
20260502162646 65 240 1.0 3.0 0.00 0.00 0.00 29 1021.7
20260502162127 64 252 1.0 3.0 0.00 0.00 0.00 25 1021.8
20260502161632 64 278 2.0 3.0 0.00 0.00 0.00 25 1021.8
20260502161114 64 245 1.0 4.0 0.00 0.00 0.00 27 1021.7
20260502160616 64 235 2.0 3.0 0.00 0.00 0.00 26 1021.7
20260502160122 64 274 1.0 2.0 0.00 0.00 0.00 28 1021.7
20260502152129 61 274 0.0 2.0 0.00 0.00 0.00 33 1021.9
20260502151650 60 257 0.0 1.0 0.00 0.00 0.00 31 1021.9
20260502151118 60 257 0.0 1.0 0.00 0.00 0.00 31 1021.8
20260502150638 59 257 0.0 1.0 0.00 0.00 0.00 30 1021.9
20260502150122 59 263 0.0 1.0 0.00 0.00 0.00 31 1021.9
20260502130619 47 63 0.0 1.0 0.00 0.00 0.00 43 1021.6
20260502130127 46 63 1.0 1.0 0.00 0.00 0.00 44 1021.6
20260502123646 47 63 0.0 1.0 0.00 0.00 0.00 40 1021.5
20260502123133 47 63 0.0 1.0 0.00 0.00 0.00 41 1021.4
20260502122614 47 63 0.0 1.0 0.00 0.00 0.00 43 1021.4
20260502122134 47 89 0.0 2.0 0.00 0.00 0.00 42 1021.3
20260502121622 46 70 1.0 1.0 0.00 0.00 0.00 43 1021.3
20260502121123 47 92 1.0 2.0 0.00 0.00 0.00 43 1021.4
20260502120632 47 78 1.0 2.0 0.00 0.00 0.00 41 1021.3
20260502120112 47 107 1.0 1.0 0.00 0.00 0.00 41 1021.3
20260502115613 47 96 1.0 1.0 0.00 0.00 0.00 39 1021.3
20260502115122 47 73 1.0 1.0 0.00 0.00 0.00 40 1021.3
20260502114623 47 73 0.0 1.0 0.00 0.00 0.00 40 1021.3
20260502114130 47 73 0.0 1.0 0.00 0.00 0.00 40 1021.3
20260502113611 46 73 0.0 1.0 0.00 0.00 0.00 42 1021.3
20260502113113 46 73 0.0 1.0 0.00 0.00 0.00 42 1021.3
20260502112613 46 73 1.0 1.0 0.00 0.00 0.00 43 1021.2
20260502112120 47 88 1.0 1.0 0.00 0.00 0.00 41 1021.3
20260502111621 47 89 1.0 1.0 0.00 0.00 0.00 41 1021.3
20260502111130 47 89 0.0 1.0 0.00 0.00 0.00 40 1021.3
20260502110610 47 89 1.0 1.0 0.00 0.00 0.00 40 1021.3
20260502110111 48 89 0.0 1.0 0.00 0.00 0.00 39 1021.3
20260502105639 48 89 1.0 1.0 0.00 0.00 0.00 38 1021.3
20260502105146 49 89 1.0 1.0 0.00 0.00 0.00 37 1021.3
20260502104627 49 69 1.0 2.0 0.00 0.00 0.00 36 1021.2
20260502104127 50 69 1.0 2.0 0.00 0.00 0.00 36 1021.2
20260502103636 49 79 1.0 2.0 0.00 0.00 0.00 36 1021.2
20260502103117 49 68 1.0 2.0 0.00 0.00 0.00 37 1021.2
20260502102645 49 76 1.0 1.0 0.00 0.00 0.00 37 1021.1
20260502102126 50 322 0.0 1.0 0.00 0.00 0.00 35 1021.1
20260502101627 50 72 0.0 1.0 0.00 0.00 0.00 34 1021.1
20260502101136 50 72 0.0 2.0 0.00 0.00 0.00 34 1021.0
20260502100615 50 80 0.0 2.0 0.00 0.00 0.00 34 1021.0
20260502100122 50 68 0.0 2.0 0.00 0.00 0.00 34 1021.0
20260502091121 50 72 1.0 2.0 0.00 0.00 0.00 35 1021.0
20260502090622 50 77 1.0 2.0 0.00 0.00 0.00 35 1021.0
20260502090130 50 92 1.0 2.0 0.00 0.00 0.00 35 1021.0
20260502071126 50 73 0.0 1.0 0.00 0.00 0.00 44 1021.1
20260502070636 50 73 1.0 1.0 0.00 0.00 0.00 43 1021.2
20260502070116 50 80 0.0 1.0 0.00 0.00 0.00 44 1021.1
20260502065624 50 79 0.0 1.0 0.00 0.00 0.00 43 1021.1
20260502065125 50 117 1.0 1.0 0.00 0.00 0.00 45 1021.1
20260502064654 50 131 0.0 1.0 0.00 0.00 0.00 46 1021.1
20260502064136 50 131 0.0 2.0 0.00 0.00 0.00 46 1021.1
20260502063623 50 70 1.0 2.0 0.00 0.00 0.00 47 1021.0
20260502063125 51 70 0.0 1.0 0.00 0.00 0.00 47 1021.0
20260502062625 51 84 1.0 1.0 0.00 0.00 0.00 46 1021.1
20260502062134 51 62 1.0 1.0 0.00 0.00 0.00 45 1021.0
20260502061615 51 65 0.0 1.0 0.00 0.00 0.00 46 1021.1
20260502061116 51 65 0.0 1.0 0.00 0.00 0.00 45 1021.0
20260502060621 51 65 1.0 1.0 0.00 0.00 0.00 45 1021.0
20260502060143 51 65 0.0 1.0 0.00 0.00 0.00 46 1021.0
20260502055630 51 65 0.0 1.0 0.00 0.00 0.00 47 1021.0
20260502055131 50 65 0.0 1.0 0.00 0.00 0.00 46 1021.1
20260502054612 51 65 0.0 1.0 0.00 0.00 0.00 47 1021.0
20260502054120 51 65 0.0 2.0 0.00 0.00 0.00 46 1020.9
20260502053620 51 65 0.0 2.0 0.00 0.00 0.00 45 1020.9
20260502053149 51 58 1.0 2.0 0.00 0.00 0.00 45 1020.9
20260502052629 51 68 1.0 2.0 0.00 0.00 0.00 45 1020.9
20260502052118 51 80 1.0 2.0 0.00 0.00 0.00 45 1020.9
20260502051618 51 66 1.0 2.0 0.00 0.00 0.00 45 1020.9
20260502051119 51 66 0.0 2.0 0.00 0.00 0.00 45 1020.9
20260502050647 51 66 0.0 1.0 0.00 0.00 0.00 47 1020.8
20260502050134 52 66 0.0 1.0 0.00 0.00 0.00 46 1020.7
20260502045612 52 66 0.0 1.0 0.00 0.00 0.00 44 1020.7
20260502045114 52 66 0.0 1.0 0.00 0.00 0.00 44 1020.8
20260502044615 52 66 0.0 2.0 0.00 0.00 0.00 44 1020.8
20260502044123 52 72 1.0 2.0 0.00 0.00 0.00 44 1020.8
20260502043625 52 73 1.0 2.0 0.00 0.00 0.00 44 1020.8
20260502043132 52 86 1.0 1.0 0.00 0.00 0.00 44 1020.8
20260502042633 52 77 0.0 1.0 0.00 0.00 0.00 44 1020.8
20260502042140 53 57 0.0 1.0 0.00 0.00 0.00 43 1020.8
20260502041620 53 57 1.0 1.0 0.00 0.00 0.00 43 1020.8
20260502040643 53 66 1.0 1.0 0.00 0.00 0.00 43 1020.8
20260502040122 53 66 1.0 1.0 0.00 0.00 0.00 43 1020.8
20260502035631 53 66 0.0 1.0 0.00 0.00 0.00 44 1020.7
20260502035113 54 66 0.0 1.0 0.00 0.00 0.00 43 1020.7
20260502034613 54 66 0.0 1.0 0.00 0.00 0.00 42 1020.6
20260502034121 54 106 0.0 1.0 0.00 0.00 0.00 42 1020.5
20260502033622 54 110 0.0 1.0 0.00 0.00 0.00 42 1020.4
20260502033123 54 120 0.0 1.0 0.00 0.00 0.00 41 1020.3
20260502032631 55 120 0.0 1.0 0.00 0.00 0.00 41 1020.3
20260502032112 55 120 0.0 1.0 0.00 0.00 0.00 39 1020.3
20260502031614 56 120 0.0 1.0 0.00 0.00 0.00 39 1020.3
20260502031122 57 120 0.0 1.0 0.00 0.00 0.00 37 1020.2
20260502030623 57 120 0.0 1.0 0.00 0.00 0.00 34 1020.1
20260502030123 57 120 0.0 2.0 0.00 0.00 0.00 37 1020.0
20260502025632 57 120 0.0 2.0 0.00 0.00 0.00 37 1019.9
20260502025114 57 113 1.0 1.0 0.00 0.00 0.00 35 1019.8
20260502024614 58 298 0.0 1.0 0.00 0.00 0.00 36 1019.8
20260502024121 58 298 0.0 0.0 0.00 0.00 0.00 37 1019.8
20260502023641 59 298 0.0 0.0 0.00 0.00 0.00 36 1019.7
20260502023128 60 298 0.0 1.0 0.00 0.00 0.00 34 1019.5
20260502022629 60 325 0.0 3.0 0.00 0.00 0.00 34 1019.4
20260502022137 61 315 1.0 3.0 0.00 0.00 0.00 33 1019.4
20260502021617 62 313 1.0 4.0 0.00 0.00 0.00 33 1019.4
20260502021146 63 304 1.0 4.0 0.00 0.00 0.00 31 1019.3
20260502020626 63 309 1.0 6.0 0.00 0.00 0.00 31 1019.3
20260502020134 64 285 3.0 6.0 0.00 0.00 0.00 30 1019.2
20260502015614 64 287 0.0 6.0 0.00 0.00 0.00 31 1019.2